This is the latest recevied weather packets stored in our database for station/object KGRR-WX. If no packets are shown the sender has not sent any weather packets the latest 10 day(s).
| Time | Temp. | Humidity | Pressure | Rain* | Wind** | Luminosity | Snow |
|---|---|---|---|---|---|---|---|
| 1788022805 | 26.67° C | 40% | 992.4 hPa | 0 mm | - | - | - |
| 1788021905 | 26.11° C | 54% | 992.6 hPa | 0 mm | - | - | - |
| 1788021005 | 26.11° C | 48% | 992.1 hPa | 0 mm | - | - | - |
| 1788020105 | 26.11° C | 48% | 992.1 hPa | 0 mm | - | - | - |
| 1788019205 | 25.56° C | 48% | 992.1 hPa | 0 mm | - | - | - |
| 1788018305 | 25.56° C | 55% | 992.8 hPa | 0 mm | - | - | - |
| 1788016511 | 25° C | 52% | 992.7 hPa | 0 mm | - | - | - |
| 1788015605 | 24.44° C | 52% | 992.7 hPa | 0 mm | - | - | - |
| 1788014704 | 23.89° C | 61% | 992.1 hPa | 0 mm | - | - | - |
| 1788013805 | 23.89° C | 54% | 992.7 hPa | 0 mm | - | - | - |
| 1788012912 | 23.89° C | 54% | 992.8 hPa | 0 mm | - | - | - |
| 1788012006 | 22.78° C | 54% | 992.8 hPa | 0 mm | - | - | - |
| 1788011104 | 22.78° C | 69% | 991.7 hPa | 0 mm | - | - | - |
| 1788010215 | 21.67° C | 69% | 991.7 hPa | 0 mm | - | - | - |
| 1788009305 | 21.11° C | 69% | 991.7 hPa | 0 mm | - | - | - |
| 1788008405 | 20° C | 69% | 991.7 hPa | 0 mm | - | - | - |
| 1788007511 | 19.44° C | 78% | 992.4 hPa | 0 mm | - | - | - |
| 1788006605 | 18.33° C | 81% | 992 hPa | 0 mm | - | - | - |
| 1788005705 | 17.22° C | 81% | 992 hPa | 0 mm | - | - | - |
| 1788004805 | 16.11° C | 81% | 992 hPa | 0 mm | - | - | - |
| 1788003905 | 15.56° C | 84% | 991.8 hPa | 0 mm | - | - | - |
| 1788003006 | 15° C | 84% | 991.5 hPa | 0 mm | - | - | - |
| 1788002107 | 15° C | 84% | 991.4 hPa | 0 mm | - | - | - |
| 1788001215 | 15° C | 84% | 991.4 hPa | 0 mm | - | - | - |
| 1788000304 | 15° C | 83% | 991.7 hPa | 0 mm | - | - | - |
* Rain latest hour (hover to see other rain measurements)
** Current wind speed in m/s (hover to see current wind gust speed)